Погода в Кандаве

Латвия     57°02′11″N   22°46′37″E
темп.,
°C
ветер,
м/с
пор.,
м/с
влажн.,
%
обл.,
%
осадки,
мм/ч
давл.,
гПа
погр.,
м
7 марта, вс
вс723:00+2зюз71575100 0.0 1005924
02:00+1зсз71593100 0.6 10041055
05:00−1зсз41195100 3.4 10021147
08:00−2зсз6156083 3.8 10011528
11:00+1зсз9154833 0.0 10032582
14:00+1сз8135167 0.1 10041998
17:00−2зсз81475100 0.1 10041523
20:00−3сз71488100 0.7 10041437
8 марта, пн
пн823:00−4ссз6128198 0.8 10061217
02:00−4ссз5107797 0.8 10081023
05:00−4ссз498085 0.0 1011875
08:00−4ссз588293 0.1 1013975
11:00−4с5773100 0.1 1015920
14:00−3с4667100 0.1 1017946
17:00−3с366335 0.0 10181038
20:00−5ссз227818 0.0 102064
9 марта, вт
вт923:00−6сз22790 0.0 102052
02:00−6зсз227535 0.0 102147
05:00−6зюз227895 0.0 102070
08:00−5юз367997 0.0 1020227
11:00−1зюз476480 0.0 1020810
14:00+1зюз575776 0.0 10201266
17:000зюз4862100 0.0 10181095
20:00−2юз41171100 0.0 1018559
10 марта, ср
ср1023:00−2юз41080100 0.0 1017411
02:00−2зюз3876100 0.0 1017344
05:00−2з269799 0.1 1017277
08:00−2сз249290 0.1 1018305
11:00−3св358899 0.3 1019375
14:00−3ссв347799 0.4 1020507
17:00−4ссв347993 0.0 1020508
20:00−6ссв248495 0.0 1021424
11 марта, чт
чт1123:00−6в128798 0.0 1021217
02:00−6ююв128796 0.0 1020149
05:00−6ююв259084 0.0 1017222
08:00−6ююв498690 0.0 1015387
11:00−2ююв61271100 0.0 1011581
14:00+1ююв71352100 0.0 10081032
17:00+1ююв81658100 0.1 1003999
20:00−1ю91891100 0.7 998981